NOAA 16 DEB

Satellite information

Favourite Embed

Satellite Type and Status

DEBRISIN ORBIT

Key statistics

Satellite NOAA 16 DEB at a glance.

Uptime

9163

Days in orbit

Revolutions

≈ 14.3

Per day

Orbit

SSO

Sun Synchronous Orbit

Inclination

98.9

Latest

Satellite identification and parameters

Extended collection of information and parameters for NOAA 16 DEB.

Object identification

Identified? True

Debris? True

Object name: NOAA 16 DEB

International designator: 2000-055CN

Object number (NORAD): 41155

Object ID (CCSDS): 41155

Country: UNITED STATES OF AMERICA (US)

Current information (Y/N): Y

RCS size: SMALL

Orbital parameters

Period: 100.388 minutes

Inclination: 98.8764 deg

SMA: 7155.063 km

Apoapsis: 790.871 km

Periapsis: 762.985 km

RAAN: 54.782 deg

Eccentricy: 0.00194872

Argument of periapsis: 155.1676 deg

Mean anomaly: 205.045 deg

Mean motion: 14.34440624 rev/day

Mean motion (dot): 0.0000995 rev/day2

B* drag term: 0.0035368923 1/REarth

Two-line elements (TLE)

Creation date: Oct. 21, 2025, 3:26 a.m.

Reference frame: TEME

Reference center: EARTH

Epoch: Oct. 20, 2025, 6:58 p.m. UTC

TLE line 0: 0 NOAA 16 DEB

TLE line 1: 1 41155U 00055CN 25293.79079120 .00009950 00000-0 35369-2 0 9993

TLE line 2: 2 41155 98.8764 54.7820 0019487 155.1676 205.0450 14.34440624511977

Live tracking on map

Real-time ground track for satellite NOAA 16 DEB.

In-orbit conjunctions

A list of the most updated potential collisions computed for object NOAA 16 DEB.

Target Orbit TCA Probability of collision Miss distance Type
IRIDIUM 33 DEB LEO 2025-07-22 06:39:14 0.0001324744 62.0 (m) DEBRIS
COSMOS 1867 COOLANT LEO 2025-05-14 12:29:40 0.0001614179 159.0 (m) DEBRIS
CZ-6A DEB LEO 2025-02-28 20:17:49 0.0002522224 619.0 (m) DEBRIS
CZ-6A DEB LEO 2025-01-26 07:42:52 0.0002840979 86.0 (m) DEBRIS
CZ-6A DEB LEO 2024-12-24 21:59:01 0.000219395 926.0 (m) DEBRIS

Associated space launch

The NOAA K, L and M POES satellites begin the fifth generation of improved environmental monitoring in support of NOAA missions. The instrument payload has significant improvements and additions/deletions. The instrument changes have effected the spacecraft subsystems and data formats.

NOAA 16 DEB was lifted into orbit during the mission ‘Titan II SLV | NOAA 16’, on board a Titan II SLV space rocket.

The launch took place on Sept. 21, 2000, 10:22 a.m. from Space Launch Complex 4W.

For more information about the launch, click the button.

Launch to space Titan II SLV | NOAA 16
Titan II SLV | NOAA 16

Agency: N/A

Status: Launch Successful

Launch date: Sept. 21, 2000, 10:22 a.m. UTC

Rocket: Titan II SLV

Launch pad: Space Launch Complex 4W

Location: Vandenberg SFB, CA, USA

...

Latest news about this satellite

There are no fresh news available about this satellite. Check back as we update our databases every day.


Newsletter sign-up

Weekly statistics, charts and insights to help you stay on top of the space industry.